This demonstration page uses our WeatherBlox Daily Observations layout. Learn more.

Left ArrowRight Arrow

Hourly Observations for September 24, 2022

Temp ( °F °C ) Dew Point ( °F °C ) Humidity (%) Winds ( mph kmh ) Pressure ( in mb ) Visibility ( mi km ) Precip ( " mm )
12:53 am 00:53 Cloudy 58 14.4 51 10.6 78 78 Calm 30.12 1020 10 16 0.00 0.00
1:53 am 01:53 Mostly Cloudy 56 13.3 49 9.4 77 77 Calm 30.10 1019 10 16 0.00 0.00
2:53 am 02:53 Cloudy 57 13.9 51 10.6 80 80 E 5 7 30.10 1019 10 16 0.00 0.00
3:53 am 03:53 Cloudy 56 13.3 51 10.6 84 84 Calm 30.11 1020 10 16 0.00 0.00
4:53 am 04:53 Cloudy with Rain 56 13.3 53 11.7 90 90 Calm 30.14 1021 3 5 0.04 1.02
5:53 am 05:53 Cloudy 56 13.3 53 11.7 90 90 Calm 30.12 1020 10 16 0.01 0.25
6:53 am 06:53 Cloudy 56 13.3 54 12.2 93 93 Calm 30.11 1020 10 16 0.01 0.25
7:53 am 07:53 Cloudy 56 13.3 54 12.2 93 93 ESE 5 7 30.09 1019 10 16 0.01 0.13
8:53 am 08:53 Cloudy 57 13.9 54 12.2 89 89 E 6 9 30.09 1019 10 16 0.00 0.00
9:53 am 09:53 Cloudy 58 14.4 52 11.1 81 81 Calm 30.08 1019 10 16 0.00 0.00
10:53 am 10:53 Cloudy 60 15.6 51 10.6 72 72 VRB 3 6 30.06 1018 10 16 0.00 0.00
11:53 am 11:53 Cloudy 63 17.2 51 10.6 65 65 SE 3 6 30.02 1017 10 16 0.00 0.00
12:53 pm 12:53 Mostly Cloudy 67 19.4 53 11.7 61 61 VRB 3 6 29.99 1016 10 16 0.00 0.00
1:53 pm 13:53 Cloudy 69 20.6 53 11.7 57 57 Calm 29.96 1015 10 16 0.00 0.00
2:53 pm 14:53 Mostly Cloudy 71 21.7 55 12.8 57 57 Calm 29.93 1013 10 16 0.00 0.00
3:53 pm 15:53 Mostly Cloudy 74 23.3 55 12.8 52 52 VRB 6 9 29.89 1012 10 16 0.00 0.00
4:53 pm 16:53 Partly Cloudy 76 24.4 57 13.9 52 52 VRB 6 9 29.88 1012 10 16 0.00 0.00
5:53 pm 17:53 Mostly Sunny 75 23.9 57 13.9 54 54 VRB 6 9 29.87 1012 10 16 0.00 0.00
6:53 pm 18:53 Sunny 70 21.1 59 15 68 68 VRB 3 6 29.86 1011 10 16 0.00 0.00
7:53 pm 19:53 Clear 64 17.8 59 15 84 84 Calm 29.86 1011 10 16 0.00 0.00
8:53 pm 20:53 Clear 61 16.1 58 14.4 90 90 Calm 29.88 1012 10 16 0.00 0.00
9:53 pm 21:53 Clear 59 15 57 13.9 93 93 Calm 29.88 1012 10 16 0.00 0.00
10:53 pm 22:53 Clear 59 15 57 13.9 93 93 Calm 29.86 1011 10 16 0.00 0.00
11:53 pm 23:53 Partly Cloudy 59 15 57 13.9 93 93 Calm 29.85 1011 10 16 0.00 0.00

Powered by AerisWeather